Montana Department of Transportation

COVID-19

View the Governor’s Coronavirus Task Force site for more information.

Main Content

Accidents and Incidents Report

Hourly Weather Roundup

ASUS45 KTFX 042110

RWRMT 

Montana Regional Weather Roundup

National Weather Service Great Falls MT

300 PM MDT SAT JUL 04 2020



NOTE: "FAIR" indicates few or no clouds below 12,000 feet with no

significant weather and/or obstructions to visibility.



MTZ001.007-043-042200-

West of the divide

  

CITY           SKY/WX    TMP DP  RH WIND       PRES   REMARKS

Kalispell      MOSUNNY   77  43  29 S10       30.01F                  

Missoula       PTSUNNY   82  44  26 NW10      30.00F                  

Butte          LGT RAIN  69  43  38 S23       30.11R                  

Anaconda         N/A     75  43  31 W5        30.04S                  

Deer Lodge       N/A     66  55  68 NW3       30.08S                  

Hamilton       PTSUNNY   75  52  43 VRB3      30.03S                  

Libby            N/A     79  37  22 SE8G16    30.01S                  

Mullan Pass    MOSUNNY   61  36  39 VRB3      30.19S                  

Plains           N/A     81  42  25 W8        30.02F                  

Ronan            N/A     77  41  27 CALM      30.02F                  

--------------------------------



MTZ008-052.055-042200-

Southwest Montana

  

CITY           SKY/WX    TMP DP  RH WIND       PRES   REMARKS

Bozeman        PTSUNNY   81  52  36 N5        30.03F                  

Dillon         PTSUNNY   75  36  24 S3        30.06F                  

Ennis          PTSUNNY   77  43  29 NW10      30.12S                  

Twin Bridges   PTSUNNY   79  50  36 SE15      30.04F                  

--------------------------------



MTZ009-010-012-014-046-048-049-054-042200-

East Slopes and Central Montana

  

CITY           SKY/WX    TMP DP  RH WIND       PRES   REMARKS

Cut Bank       PTSUNNY   78  41  26 MISG      30.00F                  

Great Falls    PTSUNNY   79  54  41 VRB3      29.98F                  

Helena         CLOUDY    70  57  63 S13       30.02R THUNDER          

Malmstrom AFB  PTSUNNY   79  54  42 E7        29.99F                  

Augusta        FAIR      75  52  45 SE7       30.01F                  

Bowmans Corner FAIR      76  47  35 SW8       29.99F                  

Choteau          N/A     72  57  60 CALM      29.99F                  

Fairfield      FAIR      78  50  36 SE12      29.98F                  

Power          LGT RAIN  73  51  46 SE9       29.99F                  

Raynesford     PTSUNNY   78  50  37 NE10      30.00F                  

Ulm            FAIR      79  51  37 CALM      29.98F                  

White Sulphur    N/A     82  36  18 W15       30.05F                  

--------------------------------



MTZ011-013-016-021-045-047-050-051-042200-

North Central Montana

  

CITY           SKY/WX    TMP DP  RH WIND       PRES   REMARKS

Havre          MOSUNNY   86  45  23 E6        29.94F                  

Lewistown      MOSUNNY   81  53  37 E10       30.02F                  

Chinook          N/A     88  45  22 W6        29.93F                  

Denton         FAIR     N/A N/A N/A NE7         N/A                   

Fort Benton      N/A     81  48  32 NE6       29.96F                  

Geyser         FAIR      78  50  37 NE3       30.02F                  

Grass Range    FAIR      81  50  33 E7        29.98F                  

Judith Gap     FAIR      79  49  35 SE12      30.04F                  

N Bar Ranch    FAIR      81  52  36 SE13      30.06F                  

Roy            FAIR      82  54  37 SE5       29.99F                  

Stanford       FAIR      78  50  37 E5        30.03F                  

--------------------------------



MTZ017.020-022.027-061-062-042200-

Northeast Montana

  

CITY           SKY/WX    TMP DP  RH WIND       PRES   REMARKS

Glasgow        SUNNY     93  49  22 SW9       29.92F HX  90           

Circle           N/A     84  66  54 SW6       29.95                   

Culbertson       N/A     91  59  33 SW9G18    29.93S HX  90           

Glendive       MOSUNNY   92  61  35 SW7       29.98F HX  92           

Jordan           N/A     92  53  26 SW10      29.95FMalta          SUNNY     88  50  27 VRB6      29.91F                  

Plentywood     SUNNY     86  59  39 SW14G21   29.96S                  

Poplar           N/A     88  61  40 S13       29.94F                  

Scobey           N/A     84  56  38 CALM      29.96F                  

Sidney         SUNNY    N/A N/A N/A S10       29.96F                  

Wolf Point     MOSUNNY   91  59  33 SW12      29.94F HX  90           

--------------------------------



MTZ028.42-056.058-042200-

Southcentral and southeast Montana

  

CITY           SKY/WX    TMP DP  RH WIND       PRES   REMARKS

Baker          MOSUNNY   91  54  28 S9        30.02F                  

Big Timber     SUNNY     81  50  34 E6        30.06S                  

Billings       MOSUNNY   84  56  38 CALM      30.00F                  

Ekalaka          N/A     86  57  36 E1        30.03F                  

Hardin         CLEAR     88  57  35 VRB5G13   29.93                   

Harlowton      FAIR      82  43  25 SE12      30.04F                  

Laurel           N/A     82  55  39 SE5       30.01S                  

Livingston     PTSUNNY   78  52  40 CALM      30.04F                  

Miles City     MOSUNNY   90  61  37 SE12      29.96F HX  90           

--------------------------------



Regional Reports...Dakotas/MN

  

CITY           SKY/WX    TMP DP  RH WIND       PRES   REMARKS

Williston      CLEAR     89  59  36 W12       29.99F                  

Minot          SUNNY     87  59  38 VRB7      29.98S                  

Dickinson      SUNNY     87  61  41 S7        30.00F                  

Beach          FAIR      88  52  29 S5        30.03S                  

Crosby         FAIR      86  63  45 VRB6G13   29.97S                  

Hettinger      SUNNY     86  61  42 SE3       30.02F                  

Tioga          FAIR      84  61  45 W7        30.01F                  

Watford City   FAIR      90  55  31 VRB7      29.97F                  

Bismarck       SUNNY     88  66  48 VRB5      29.99F HX  90           

Grand Forks    PTSUNNY   87  72  60 S9        29.96F HX  93           

Fargo          MOSUNNY   88  68  51 SE13      29.98F HX  91           

Buffalo SD       N/A     92  55  28 NE10      29.98F HX  90           

Rapid City     PTSUNNY   83  58  42 W10       30.03R                  

Intl Falls     PTSUNNY   86  64  47 NE5       30.01F                  

Duluth         MOSUNNY   88  58  36 VRB5      30.03F                  

Minneapolis    PTSUNNY   89  63  41 SE7       30.01F HX  90           

--------------------------------



Regional Reports...WY/ID/WA

  

CITY           SKY/WX    TMP DP  RH WIND       PRES   REMARKS

Buffalo WY     MOSUNNY   81  50  33 CALM      30.11F                  

Cody           LGT RAIN  80  44  27 S12G24    30.10S                  

Gillette       MOSUNNY   88  52  29 MISG      30.07F                  

Powell         PTSUNNY   82  37  20 CALM      30.09R                  

Sheridan       MOSUNNY   91  48  22 SE9       30.01F                  

Yellowstone La   N/A     74  34  23 SW8       30.29F                  

Boise          SUNNY     86  42  21 NW12G22   30.03F                  

Couer d'Alene  MOSUNNY   73  44  35 W9        30.09F                  

Idaho Falls    MOSUNNY   86  47  25 SW10      30.09                   

Salmon         TSTM      71  54  54 CALM      30.03S                  

Spokane        PTSUNNY   74  38  27 SW10      30.09S                  

Seattle        MOSUNNY   67  49  52 VRB5      30.22R                  

--------------------------------



Regional Reports...Alberta

  

CITY           SKY/WX    TMP DP  RH WIND       PRES   REMARKS

Calgary        MOSUNNY   63  48  59 N14       29.98F                  

Crowsnest Pass   N/A     70  34  26 W16G31      N/A                   

Edmonton       MOSUNNY   68  57  68 N5        29.92F                  

Fort McMurray  PTSUNNY   70  50  49 S5        29.89F                  

High Level     LGT RAIN  57  55  94 N12       29.87R FOG              

Lethbridge     PTSUNNY   75  50  41 S10       29.96F                  

Lloydminster   MOSUNNY   77  57  50 SW13G20   29.85S                  

Medicine Hat   PTSUNNY   77  50  38 SW14      29.95F                  

Milk River       N/A     75  48  38 SE7         N/A                   

Onefour          N/A     79  43  27 W6          N/A                   

Peace River    LGT RAIN  57  54  88 W13       29.93R                  

Pincher Creek  SUNNY     70  43  37 W18G25    29.98S                  

Waterton Gate    N/A     70  36  28 SW18G26     N/A                   

Fort Smith NWT PTSUNNY   75  46  35 S13       29.82F                  

--------------------------------



Regional Reports...Saskatchewan

  

CITY           SKY/WX    TMP DP  RH WIND       PRES   REMARKS

Assiniboia       N/A     81  57  44 E6          N/A                   

Coronach         N/A     84  59  42 SW7         N/A                   

Cypress Hills    N/A     73  41  31 NW3         N/A                   

Estevan        SUNNY     86  64  48 SW10      29.96F                  

La Ronge         N/A     82  50  32 E5          N/A                   

Moose Jaw        N/A     81  64  57 E10         N/A                   

Prince Albert  MOSUNNY   81  63  54 S12       29.92F                  

Regina         MOSUNNY   82  64  54 VRB2      29.95F                  

Rockglen         N/A     82  55  39 SW10G17     N/A                   

Saskatoon      MOSUNNY   84  59  42 S13G20    29.88F                  

Swift Current  PTSUNNY   79  61  53 SE6       29.94S THUNDER          

Uranium City     N/A     75  50  41 SW3         N/A                   

Val Marie        N/A     84  50  30 SW8         N/A                   

--------------------------------